����,���ϕ���(m/s),���ϕ���,�ő�u�ԕ���(m/s),�ő啗��������,�C��(��),���x(%),10���Ԉړ��ώZ�J��(mm),1���Ԉړ��ώZ�J��(mm),���J��(mm),�݌v�J��(mm)
2022-02-14T00:00:00+09:00,3.9,�k,5.9,�k,5.3,84.2,0,0,1,1
2022-02-14T00:01:00+09:00,3.9,�k,5.9,�k,5.3,84.1,0,0,0,1
2022-02-14T00:02:00+09:00,3.9,�k,5.9,�k,5.2,84.1,0,0,0,1
2022-02-14T00:03:00+09:00,3.9,�k,5.9,�k,5.2,84.2,0,0,0,1
2022-02-14T00:04:00+09:00,3.9,�k,5.9,�k,5.2,84.3,0,0,0,1
2022-02-14T00:05:00+09:00,3.9,�k,5.9,�k,5.2,84.4,0,0,0,1
2022-02-14T00:06:00+09:00,3.9,�k,5.9,�k,5.3,84.3,0,0,0,1
2022-02-14T00:07:00+09:00,3.9,�k,5.9,�k,5.3,84.2,0,0,0,1
2022-02-14T00:08:00+09:00,3.8,�k,5.6,�k,5.3,84,0,0,0,1
2022-02-14T00:09:00+09:00,3.8,�k,5.6,�k,5.3,83.9,0,0,0,1
2022-02-14T00:10:00+09:00,3.8,�k,5.6,�k,5.3,83.8,0,0,0,1
2022-02-14T00:11:00+09:00,3.8,�k,5.6,�k,5.3,83.5,0,0,0,1
2022-02-14T00:12:00+09:00,3.9,�k,6.1,�k,5.3,83.2,0,0,0,1
2022-02-14T00:13:00+09:00,4,�k,6.1,�k,5.4,83,0,0,0,1
2022-02-14T00:14:00+09:00,4,�k,6.1,�k,5.4,82.8,0,0,0,1
2022-02-14T00:15:00+09:00,4.1,�k,6.1,�k,5.4,82.5,0,0,0,1
2022-02-14T00:16:00+09:00,4.2,�k,6.1,�k,5.4,82.3,0,0,0,1
2022-02-14T00:17:00+09:00,4.2,�k,6.1,�k,5.4,82,0,0,0,1
2022-02-14T00:18:00+09:00,4.2,�k,6.1,�k,5.5,81.6,0,0,0,1
2022-02-14T00:19:00+09:00,4.4,�k,7.8,�k�k��,5.4,81.5,0,0,0,1
2022-02-14T00:20:00+09:00,4.4,�k,7.8,�k�k��,5.5,81.4,0,0,0,1
2022-02-14T00:21:00+09:00,4.3,�k,7.8,�k�k��,5.5,81,0,0,0,1
2022-02-14T00:22:00+09:00,4.2,�k,7.8,�k�k��,5.5,80.7,0,0,0,1
2022-02-14T00:23:00+09:00,4.1,�k,7.8,�k�k��,5.5,80.8,0,0,0,1
2022-02-14T00:24:00+09:00,4.1,�k,7.8,�k�k��,5.4,80.9,0,0,0,1
2022-02-14T00:25:00+09:00,4,�k,7.8,�k�k��,5.4,81.1,0,0,0,1
2022-02-14T00:26:00+09:00,3.9,�k,7.8,�k�k��,5.4,81.4,0,0,0,1
2022-02-14T00:27:00+09:00,3.9,�k,7.8,�k�k��,5.4,81.6,0,0,0,1
2022-02-14T00:28:00+09:00,3.9,�k,7.8,�k�k��,5.4,81.7,0,0,0,1
2022-02-14T00:29:00+09:00,3.7,�k,5.5,�k�k��,5.4,81.6,0,0,0,1
2022-02-14T00:30:00+09:00,3.8,�k,6.2,�k,5.4,81.6,0,0,0,1
2022-02-14T00:31:00+09:00,3.9,�k,6.4,�k,5.4,81.5,0,0,0,1
2022-02-14T00:32:00+09:00,3.9,�k,7,�k,5.4,81.2,0,0,0,1
2022-02-14T00:33:00+09:00,3.9,�k,7,�k,5.4,81,0,0,0,1
2022-02-14T00:34:00+09:00,4.1,�k,7,�k,5.4,80.9,0,0,0,1
2022-02-14T00:35:00+09:00,4.2,�k,7,�k,5.4,80.7,0,0,0,1
2022-02-14T00:36:00+09:00,4.3,�k,7,�k,5.5,80.4,0,0,0,1
2022-02-14T00:37:00+09:00,4.3,�k,7,�k,5.4,80.3,0,0,0,1
2022-02-14T00:38:00+09:00,4.4,�k,7,�k,5.4,80.1,0,0,0,1
2022-02-14T00:39:00+09:00,4.5,�k,7,�k,5.4,79.8,0,0,0,1
2022-02-14T00:40:00+09:00,4.5,�k,7,�k,5.4,79.7,0,0,0,1
2022-02-14T00:41:00+09:00,4.5,�k,7,�k,5.4,79.7,0,0,0,1
2022-02-14T00:42:00+09:00,4.6,�k,7.8,�k,5.4,79.7,0,0,0,1
2022-02-14T00:43:00+09:00,4.7,�k,7.8,�k,5.4,79.7,0,0,0,1
2022-02-14T00:44:00+09:00,4.8,�k,7.8,�k,5.5,79.5,0,0,0,1
2022-02-14T00:45:00+09:00,4.8,�k,7.8,�k,5.5,79.2,0,0,0,1
2022-02-14T00:46:00+09:00,4.8,�k,7.8,�k,5.5,79.1,0,0,0,1
2022-02-14T00:47:00+09:00,5,�k,7.8,�k,5.5,79.1,0,0,0,1
2022-02-14T00:48:00+09:00,4.9,�k,7.8,�k,5.5,78.9,0,0,0,1
2022-02-14T00:49:00+09:00,5,�k,7.8,�k,5.4,78.8,0,0,0,1
2022-02-14T00:50:00+09:00,5,�k,7.8,�k,5.4,78.8,0,0,0,1
2022-02-14T00:51:00+09:00,5.1,�k,7.8,�k,5.4,78.7,0,0,0,1
2022-02-14T00:52:00+09:00,5,�k,7.5,�k�k��,5.4,78.7,0,0,0,1
2022-02-14T00:53:00+09:00,4.9,�k,7.5,�k�k��,5.4,78.6,0,0,0,1
2022-02-14T00:54:00+09:00,4.7,�k,7.5,�k�k��,5.4,78.7,0,0,0,1
2022-02-14T00:55:00+09:00,4.7,�k,7.5,�k�k��,5.4,78.8,0,0,0,1
2022-02-14T00:56:00+09:00,4.6,�k,7.5,�k�k��,5.3,78.8,0,0,0,1
2022-02-14T00:57:00+09:00,4.5,�k,6.7,�k�k��,5.3,78.8,0,0,0,1
2022-02-14T00:58:00+09:00,4.5,�k,6.7,�k�k��,5.4,78.7,0,0,0,1
2022-02-14T00:59:00+09:00,4.6,�k,7,�k,5.4,78.5,0,0,0,1
2022-02-14T01:00:00+09:00,4.6,�k,7.2,�k�k��,5.4,78.2,0,0,0,1
2022-02-14T01:01:00+09:00,4.6,�k,7.2,�k�k��,5.4,77.8,0,0,0,1
2022-02-14T01:02:00+09:00,4.5,�k,7.2,�k�k��,5.4,77.8,0,0,0,1
2022-02-14T01:03:00+09:00,4.6,�k,7.2,�k�k��,5.4,77.8,0,0,0,1
2022-02-14T01:04:00+09:00,4.7,�k,7.2,�k�k��,5.4,77.8,0,0,0,1
2022-02-14T01:05:00+09:00,4.6,�k,7.2,�k�k��,5.4,77.7,0,0,0,1
2022-02-14T01:06:00+09:00,4.6,�k,7.2,�k�k��,5.4,77.9,0,0,0,1
2022-02-14T01:07:00+09:00,4.6,�k,7.2,�k�k��,5.3,78,0,0,0,1
2022-02-14T01:08:00+09:00,4.6,�k,7.2,�k�k��,5.4,78,0,0,0,1
2022-02-14T01:09:00+09:00,4.4,�k,7.2,�k�k��,5.3,77.9,0,0,0,1
2022-02-14T01:10:00+09:00,4.3,�k,6.6,�k�k��,5.3,78.1,0,0,0,1
2022-02-14T01:11:00+09:00,4.3,�k,6.6,�k�k��,5.3,78.1,0,0,0,1
2022-02-14T01:12:00+09:00,4.5,�k,6.6,�k�k��,5.3,78.1,0,0,0,1
2022-02-14T01:13:00+09:00,4.6,�k,6.7,�k,5.3,77.8,0,0,0,1
2022-02-14T01:14:00+09:00,4.5,�k,6.7,�k,5.4,77.6,0,0,0,1
2022-02-14T01:15:00+09:00,4.6,�k,6.7,�k,5.3,77.7,0,0,0,1
2022-02-14T01:16:00+09:00,4.5,�k,6.7,�k,5.3,77.7,0,0,0,1
2022-02-14T01:17:00+09:00,4.6,�k,6.7,�k,5.3,77.7,0,0,0,1
2022-02-14T01:18:00+09:00,4.5,�k�k��,6.7,�k,5.3,77.6,0,0,0,1
2022-02-14T01:19:00+09:00,4.6,�k�k��,6.7,�k,5.3,77.7,0,0,0,1
2022-02-14T01:20:00+09:00,4.6,�k�k��,6.7,�k,5.3,77.7,0,0,0,1
2022-02-14T01:21:00+09:00,4.6,�k�k��,6.7,�k,5.3,77.5,0,0,0,1
2022-02-14T01:22:00+09:00,4.4,�k�k��,6.7,�k,5.3,77.5,0,0,0,1
2022-02-14T01:23:00+09:00,4.4,�k�k��,7,�k��,5.3,77.4,0,0,0,1
2022-02-14T01:24:00+09:00,4.5,�k�k��,8.2,�k�k��,5.3,77.3,0,0,0,1
2022-02-14T01:25:00+09:00,4.7,�k�k��,8.2,�k�k��,5.4,77,0,0,0,1
2022-02-14T01:26:00+09:00,4.8,�k�k��,8.2,�k�k��,5.4,76.7,0,0,0,1
2022-02-14T01:27:00+09:00,4.7,�k�k��,8.2,�k�k��,5.4,76.5,0,0,0,1
2022-02-14T01:28:00+09:00,4.8,�k�k��,8.2,�k�k��,5.4,76.5,0,0,0,1
2022-02-14T01:29:00+09:00,5,�k�k��,8.2,�k�k��,5.4,76.3,0,0,0,1
2022-02-14T01:30:00+09:00,5.1,�k�k��,8.2,�k�k��,5.4,75.9,0,0,0,1
2022-02-14T01:31:00+09:00,5.2,�k�k��,8.2,�k�k��,5.4,75.8,0,0,0,1
2022-02-14T01:32:00+09:00,5.2,�k�k��,8.2,�k�k��,5.4,76,0,0,0,1
2022-02-14T01:33:00+09:00,5.1,�k�k��,8.2,�k�k��,5.3,76.2,0,0,0,1
2022-02-14T01:34:00+09:00,5,�k�k��,7.9,�k�k��,5.3,76.3,0,0,0,1
2022-02-14T01:35:00+09:00,4.9,�k�k��,7.9,�k�k��,5.4,76.1,0,0,0,1
2022-02-14T01:36:00+09:00,4.8,�k�k��,7.9,�k�k��,5.4,75.8,0,0,0,1
2022-02-14T01:37:00+09:00,4.8,�k�k��,7.9,�k�k��,5.3,75.8,0,0,0,1
2022-02-14T01:38:00+09:00,4.8,�k�k��,7.9,�k�k��,5.3,75.9,0,0,0,1
2022-02-14T01:39:00+09:00,4.7,�k�k��,7.7,�k�k��,5.4,75.8,0,0,0,1
2022-02-14T01:40:00+09:00,4.7,�k�k��,7.7,�k�k��,5.4,75.8,0,0,0,1
2022-02-14T01:41:00+09:00,4.7,�k�k��,7.7,�k�k��,5.3,75.8,0,0,0,1
2022-02-14T01:42:00+09:00,4.8,�k�k��,7.7,�k�k��,5.3,75.8,0,0,0,1
2022-02-14T01:43:00+09:00,4.8,�k�k��,7.7,�k�k��,5.3,75.7,0,0,0,1
2022-02-14T01:44:00+09:00,4.8,�k�k��,7.7,�k�k��,5.3,75.7,0,0,0,1
2022-02-14T01:45:00+09:00,4.8,�k�k��,7.7,�k�k��,5.3,75.7,0,0,0,1
2022-02-14T01:46:00+09:00,4.9,�k�k��,7.7,�k�k��,5.3,75.6,0,0,0,1
2022-02-14T01:47:00+09:00,4.9,�k�k��,7.7,�k�k��,5.3,75.6,0,0,0,1
2022-02-14T01:48:00+09:00,4.8,�k�k��,7.7,�k�k��,5.3,75.8,0,0,0,1
2022-02-14T01:49:00+09:00,4.7,�k�k��,7.6,�k�k��,5.3,76,0,0,0,1
2022-02-14T01:50:00+09:00,4.6,�k�k��,7.1,�k�k��,5.3,75.9,0,0,0,1
2022-02-14T01:51:00+09:00,4.6,�k�k��,6.8,�k,5.3,75.9,0,0,0,1
2022-02-14T01:52:00+09:00,4.5,�k,6.8,�k,5.3,75.8,0,0,0,1
2022-02-14T01:53:00+09:00,4.5,�k,6.8,�k,5.3,75.9,0,0,0,1
2022-02-14T01:54:00+09:00,4.6,�k,8.5,�k�k��,5.3,75.8,0,0,0,1
2022-02-14T01:55:00+09:00,4.6,�k,8.5,�k�k��,5.3,75.6,0,0,0,1
2022-02-14T01:56:00+09:00,4.6,�k,8.5,�k�k��,5.3,75.5,0,0,0,1
2022-02-14T01:57:00+09:00,4.8,�k�k��,8.5,�k�k��,5.3,75.4,0,0,0,1
2022-02-14T01:58:00+09:00,4.9,�k�k��,8.5,�k�k��,5.3,75,0,0,0,1
2022-02-14T01:59:00+09:00,4.8,�k�k��,8.5,�k�k��,5.3,74.8,0,0,0,1
2022-02-14T02:00:00+09:00,4.9,�k�k��,8.5,�k�k��,5.3,74.9,0,0,0,1
2022-02-14T02:01:00+09:00,4.8,�k�k��,8.5,�k�k��,5.3,75,0,0,0,1
2022-02-14T02:02:00+09:00,4.8,�k�k��,8.5,�k�k��,5.3,75.2,0,0,0,1
2022-02-14T02:03:00+09:00,4.8,�k�k��,8.5,�k�k��,5.3,75.3,0,0,0,1
2022-02-14T02:04:00+09:00,4.7,�k�k��,7.5,�k�k��,5.3,75.5,0,0,0,1
2022-02-14T02:05:00+09:00,4.7,�k�k��,7.5,�k�k��,5.3,75.5,0,0,0,1
2022-02-14T02:06:00+09:00,4.7,�k�k��,7.5,�k�k��,5.3,75.5,0,0,0,1
2022-02-14T02:07:00+09:00,4.6,�k,6.8,�k,5.3,75.5,0,0,0,1
2022-02-14T02:08:00+09:00,4.6,�k,6.8,�k,5.3,75.5,0,0,0,1
2022-02-14T02:09:00+09:00,4.8,�k,6.8,�k,5.3,75.4,0,0,0,1
2022-02-14T02:10:00+09:00,4.8,�k,7,�k,5.3,75.3,0,0,0,1
2022-02-14T02:11:00+09:00,4.8,�k,7,�k,5.3,75.3,0,0,0,1
2022-02-14T02:12:00+09:00,4.9,�k,7,�k,5.2,75.4,0,0,0,1
2022-02-14T02:13:00+09:00,4.9,�k,7,�k,5.2,75.5,0,0,0,1
2022-02-14T02:14:00+09:00,4.8,�k,7,�k,5.3,75.5,0,0,0,1
2022-02-14T02:15:00+09:00,4.8,�k,7,�k,5.2,75.5,0,0,0,1
2022-02-14T02:16:00+09:00,4.8,�k,7,�k,5.3,75.4,0,0,0,1
2022-02-14T02:17:00+09:00,4.9,�k,7.6,�k�k��,5.3,75.2,0,0,0,1
2022-02-14T02:18:00+09:00,4.8,�k,7.6,�k�k��,5.3,75.1,0,0,0,1
2022-02-14T02:19:00+09:00,4.7,�k,7.6,�k�k��,5.3,75.1,0,0,0,1
2022-02-14T02:20:00+09:00,4.6,�k�k��,7.6,�k�k��,5.3,75,0,0,0,1
2022-02-14T02:21:00+09:00,4.8,�k�k��,8,�k�k��,5.3,75.1,0,0,0,1
2022-02-14T02:22:00+09:00,4.8,�k�k��,8,�k�k��,5.4,74.6,0,0,0,1
2022-02-14T02:23:00+09:00,4.8,�k�k��,8,�k�k��,5.3,74.4,0,0,0,1
2022-02-14T02:24:00+09:00,4.8,�k�k��,8,�k�k��,5.3,74.5,0,0,0,1
2022-02-14T02:25:00+09:00,4.8,�k�k��,8,�k�k��,5.3,74.7,0,0,0,1
2022-02-14T02:26:00+09:00,4.7,�k�k��,8,�k�k��,5.3,74.7,0,0,0,1
2022-02-14T02:27:00+09:00,4.6,�k�k��,8,�k�k��,5.3,74.8,0,0,0,1
2022-02-14T02:28:00+09:00,4.7,�k�k��,8.6,�k�k��,5.3,74.7,0,0,0,1
2022-02-14T02:29:00+09:00,4.7,�k�k��,8.6,�k�k��,5.3,74.7,0,0,0,1
2022-02-14T02:30:00+09:00,4.9,�k�k��,8.6,�k�k��,5.3,74.6,0,0,0,1
2022-02-14T02:31:00+09:00,4.9,�k,8.6,�k�k��,5.3,74.6,0,0,0,1
2022-02-14T02:32:00+09:00,4.9,�k,8.6,�k�k��,5.3,74.5,0,0,0,1
2022-02-14T02:33:00+09:00,5,�k,8.6,�k�k��,5.3,74.6,0,0,0,1
2022-02-14T02:34:00+09:00,5.1,�k,8.6,�k�k��,5.3,74.5,0,0,0,1
2022-02-14T02:35:00+09:00,5.2,�k,8.6,�k�k��,5.3,74.6,0,0,0,1
2022-02-14T02:36:00+09:00,5.4,�k,8.6,�k�k��,5.3,74.6,0,0,0,1
2022-02-14T02:37:00+09:00,5.5,�k,8.6,�k�k��,5.3,74.5,0,0,0,1
2022-02-14T02:38:00+09:00,5.5,�k,7.6,�k,5.3,74.4,0,0,0,1
2022-02-14T02:39:00+09:00,5.5,�k,7.6,�k,5.3,74.3,0,0,0,1
2022-02-14T02:40:00+09:00,5.5,�k,7.6,�k,5.3,74.4,0,0,0,1
2022-02-14T02:41:00+09:00,5.5,�k,7.6,�k,5.3,74.4,0,0,0,1
2022-02-14T02:42:00+09:00,5.4,�k,7.6,�k,5.3,74.3,0,0,0,1
2022-02-14T02:43:00+09:00,5.4,�k,7.6,�k,5.3,74.2,0,0,0,1
2022-02-14T02:44:00+09:00,5.5,�k,7.6,�k,5.3,74.2,0,0,0,1
2022-02-14T02:45:00+09:00,5.4,�k,7.6,�k,5.3,74.2,0,0,0,1
2022-02-14T02:46:00+09:00,5.2,�k,7.4,�k�k��,5.3,74.3,0,0,0,1
2022-02-14T02:47:00+09:00,5.1,�k,7.4,�k�k��,5.2,74.4,0,0,0,1
2022-02-14T02:48:00+09:00,5.1,�k,7.4,�k�k��,5.2,74.5,0,0,0,1
2022-02-14T02:49:00+09:00,5,�k,7.4,�k�k��,5.2,74.4,0,0,0,1
2022-02-14T02:50:00+09:00,4.9,�k,7.2,�k,5.2,74.5,0,0,0,1
2022-02-14T02:51:00+09:00,5,�k,7.5,�k�k��,5.3,74.3,0,0,0,1
2022-02-14T02:52:00+09:00,5.2,�k,8.9,�k,5.3,73.9,0,0,0,1
2022-02-14T02:53:00+09:00,5.3,�k,8.9,�k,5.3,73.5,0,0,0,1
2022-02-14T02:54:00+09:00,5.2,�k,8.9,�k,5.4,73.2,0,0,0,1
2022-02-14T02:55:00+09:00,5.3,�k,8.9,�k,5.4,73,0,0,0,1
2022-02-14T02:56:00+09:00,5.3,�k�k��,8.9,�k,5.3,72.9,0,0,0,1
2022-02-14T02:57:00+09:00,5.3,�k�k��,8.9,�k,5.4,73,0,0,0,1
2022-02-14T02:58:00+09:00,5.1,�k�k��,8.9,�k,5.3,73.1,0,0,0,1
2022-02-14T02:59:00+09:00,5.2,�k�k��,8.9,�k,5.3,73.3,0,0,0,1
2022-02-14T03:00:00+09:00,5.4,�k�k��,8.9,�k,5.3,73.4,0,0,0,1
2022-02-14T03:01:00+09:00,5.4,�k�k��,8.9,�k,5.4,72.9,0,0,0,1
2022-02-14T03:02:00+09:00,5.2,�k�k��,8.3,�k�k��,5.4,72.6,0,0,0,1
2022-02-14T03:03:00+09:00,5.3,�k�k��,8.3,�k�k��,5.4,72.4,0,0,0,1
2022-02-14T03:04:00+09:00,5.3,�k�k��,8.3,�k�k��,5.3,72.4,0,0,0,1
2022-02-14T03:05:00+09:00,5.1,�k�k��,8.3,�k�k��,5.4,72.7,0,0,0,1
2022-02-14T03:06:00+09:00,5.1,�k,8.3,�k�k��,5.3,72.9,0,0,0,1
2022-02-14T03:07:00+09:00,5,�k,8.3,�k�k��,5.3,73.1,0,0,0,1
2022-02-14T03:08:00+09:00,5.3,�k,8.3,�k�k��,5.3,73.3,0,0,0,1
2022-02-14T03:09:00+09:00,5.2,�k,8.3,�k�k��,5.3,72.9,0,0,0,1
2022-02-14T03:10:00+09:00,5,�k,8.3,�k�k��,5.3,72.9,0,0,0,1
2022-02-14T03:11:00+09:00,4.8,�k,8.3,�k�k��,5.3,72.5,0,0,0,1
2022-02-14T03:12:00+09:00,4.7,�k,8.3,�k,5.3,72.5,0,0,0,1
2022-02-14T03:13:00+09:00,4.4,�k,7.5,�k�k��,5.3,72.6,0,0,0,1
2022-02-14T03:14:00+09:00,4.5,�k�k��,7.5,�k�k��,5.3,72.7,0,0,0,1
2022-02-14T03:15:00+09:00,4.5,�k�k��,7.5,�k�k��,5.3,72.7,0,0,0,1
2022-02-14T03:16:00+09:00,4.7,�k�k��,7.5,�k�k��,5.3,72.5,0,0,0,1
2022-02-14T03:17:00+09:00,4.9,�k�k��,8,�k�k��,5.4,72.2,0,0,0,1
2022-02-14T03:18:00+09:00,4.9,�k�k��,8.9,�k,5.4,71.7,0,0,0,1
2022-02-14T03:19:00+09:00,5.2,�k�k��,9.8,�k,5.5,71.5,0,0,0,1
2022-02-14T03:20:00+09:00,5.4,�k�k��,9.8,�k,5.4,71.1,0,0,0,1
2022-02-14T03:21:00+09:00,5.7,�k�k��,9.8,�k,5.4,71,0,0,0,1
2022-02-14T03:22:00+09:00,5.8,�k�k��,9.8,�k,5.4,71.1,0,0,0,1
2022-02-14T03:23:00+09:00,6.2,�k�k��,9.8,�k,5.4,71.2,0,0,0,1
2022-02-14T03:24:00+09:00,6.4,�k�k��,10.2,�k�k��,5.4,70.9,0,0,0,1
2022-02-14T03:25:00+09:00,6.7,�k�k��,10.2,�k�k��,5.4,70.9,0,0,0,1
2022-02-14T03:26:00+09:00,6.9,�k�k��,10.8,�k�k��,5.4,70.8,0,0,0,1
2022-02-14T03:27:00+09:00,7,�k�k��,10.8,�k�k��,5.5,70.5,0,0,0,1
2022-02-14T03:28:00+09:00,6.9,�k�k��,10.8,�k�k��,5.4,70.5,0,0,0,1
2022-02-14T03:29:00+09:00,6.7,�k�k��,10.8,�k�k��,5.4,70.9,0,0,0,1
2022-02-14T03:30:00+09:00,6.6,�k�k��,10.8,�k�k��,5.4,71.2,0,0,0,1
2022-02-14T03:31:00+09:00,6.4,�k�k��,10.8,�k�k��,5.4,71.3,0,0,0,1
2022-02-14T03:32:00+09:00,6.5,�k�k��,10.8,�k�k��,5.4,71.4,0,0,0,1
2022-02-14T03:33:00+09:00,6.2,�k�k��,10.8,�k�k��,5.4,71.4,0,0,0,1
2022-02-14T03:34:00+09:00,6,�k�k��,10.8,�k�k��,5.4,71.4,0,0,0,1
2022-02-14T03:35:00+09:00,5.7,�k�k��,10.8,�k�k��,5.4,71.3,0,0,0,1
2022-02-14T03:36:00+09:00,5.3,�k�k��,9.1,�k�k��,5.3,71.2,0,0,0,1
2022-02-14T03:37:00+09:00,5,�k�k��,8.7,�k�k��,5.4,71.3,0,0,0,1
2022-02-14T03:38:00+09:00,5.1,�k�k��,8.7,�k�k��,5.4,71.3,0,0,0,1
2022-02-14T03:39:00+09:00,5.1,�k�k��,8.7,�k�k��,5.4,71.3,0,0,0,1
2022-02-14T03:40:00+09:00,5,�k�k��,8.7,�k�k��,5.4,71.2,0,0,0,1
2022-02-14T03:41:00+09:00,4.9,�k�k��,8.7,�k�k��,5.4,71.2,0,0,0,1
2022-02-14T03:42:00+09:00,5,�k�k��,9.4,�k��,5.4,71.1,0,0,0,1
2022-02-14T03:43:00+09:00,5.1,�k�k��,9.4,�k��,5.4,70.8,0,0,0,1
2022-02-14T03:44:00+09:00,5.2,�k�k��,9.4,�k��,5.5,70.6,0,0,0,1
2022-02-14T03:45:00+09:00,5.5,�k�k��,9.4,�k��,5.5,70.2,0,0,0,1
2022-02-14T03:46:00+09:00,5.8,�k�k��,9.4,�k��,5.5,70.1,0,0,0,1
2022-02-14T03:47:00+09:00,5.9,�k�k��,9.4,�k��,5.5,69.9,0,0,0,1
2022-02-14T03:48:00+09:00,5.8,�k�k��,9.4,�k��,5.5,70,0,0,0,1
2022-02-14T03:49:00+09:00,5.7,�k�k��,9.4,�k��,5.4,70.3,0,0,0,1
2022-02-14T03:50:00+09:00,5.9,�k�k��,9.4,�k��,5.5,70.4,0,0,0,1
2022-02-14T03:51:00+09:00,6,�k�k��,9.4,�k��,5.5,70.3,0,0,0,1
2022-02-14T03:52:00+09:00,5.9,�k�k��,9.4,�k�k��,5.5,70.3,0,0,0,1
2022-02-14T03:53:00+09:00,5.9,�k�k��,9.4,�k�k��,5.5,70.4,0,0,0,1
2022-02-14T03:54:00+09:00,5.7,�k�k��,9.4,�k�k��,5.4,70.5,0,0,0,1
2022-02-14T03:55:00+09:00,5.6,�k�k��,9.4,�k�k��,5.4,70.5,0,0,0,1
2022-02-14T03:56:00+09:00,5.5,�k�k��,9.4,�k�k��,5.4,70.7,0,0,0,1
2022-02-14T03:57:00+09:00,5.5,�k�k��,9.4,�k�k��,5.4,70.8,0,0,0,1
2022-02-14T03:58:00+09:00,5.6,�k�k��,9.4,�k�k��,5.4,70.9,0,0,0,1
2022-02-14T03:59:00+09:00,5.6,�k�k��,9.4,�k�k��,5.5,70.9,0,0,0,1
2022-02-14T04:00:00+09:00,5.5,�k�k��,9.4,�k�k��,5.4,71,0,0,0,1
2022-02-14T04:01:00+09:00,5.4,�k�k��,9.4,�k�k��,5.4,71.1,0,0,0,1
2022-02-14T04:02:00+09:00,5.4,�k�k��,9.4,�k�k��,5.4,71.2,0,0,0,1
2022-02-14T04:03:00+09:00,5.4,�k�k��,9.4,�k�k��,5.4,71.4,0,0,0,1
2022-02-14T04:04:00+09:00,5.6,�k�k��,9.4,�k�k��,5.5,71.2,0,0,0,1
2022-02-14T04:05:00+09:00,5.7,�k�k��,9.2,�k�k��,5.5,70.8,0,0,0,1
2022-02-14T04:06:00+09:00,5.7,�k�k��,9.2,�k�k��,5.5,70.7,0,0,0,1
2022-02-14T04:07:00+09:00,5.8,�k�k��,9.2,�k�k��,5.5,70.8,0,0,0,1
2022-02-14T04:08:00+09:00,5.8,�k�k��,9.2,�k�k��,5.5,70.7,0,0,0,1
2022-02-14T04:09:00+09:00,5.8,�k�k��,9.2,�k�k��,5.5,70.8,0,0,0,1
2022-02-14T04:10:00+09:00,5.9,�k�k��,9.2,�k�k��,5.5,70.9,0,0,0,1
2022-02-14T04:11:00+09:00,6.1,�k�k��,9.2,�k�k��,5.5,71,0,0,0,1
2022-02-14T04:12:00+09:00,6.2,�k�k��,9.2,�k�k��,5.5,70.9,0,0,0,1
2022-02-14T04:13:00+09:00,6.2,�k�k��,9.2,�k�k��,5.5,70.9,0,0,0,1
2022-02-14T04:14:00+09:00,6,�k�k��,9.2,�k�k��,5.5,71,0,0,0,1
2022-02-14T04:15:00+09:00,5.8,�k�k��,9.1,�k,5.5,71,0,0,0,1
2022-02-14T04:16:00+09:00,5.6,�k�k��,9.1,�k,5.5,71.2,0,0,0,1
2022-02-14T04:17:00+09:00,5.5,�k�k��,9.1,�k,5.4,71.3,0,0,0,1
2022-02-14T04:18:00+09:00,5.5,�k�k��,9.1,�k,5.4,71.5,0,0,0,1
2022-02-14T04:19:00+09:00,5.6,�k�k��,9.1,�k,5.5,71.4,0,0,0,1
2022-02-14T04:20:00+09:00,5.6,�k�k��,9.1,�k,5.4,71.4,0,0,0,1
2022-02-14T04:21:00+09:00,5.4,�k�k��,8.4,�k�k��,5.5,71.5,0,0,0,1
2022-02-14T04:22:00+09:00,5.3,�k�k��,8.4,�k�k��,5.5,71.4,0,0,0,1
2022-02-14T04:23:00+09:00,5.2,�k�k��,7.9,�k��,5.4,71.6,0,0,0,1
2022-02-14T04:24:00+09:00,5.1,�k�k��,7.9,�k��,5.5,71.7,0,0,0,1
2022-02-14T04:25:00+09:00,5.2,�k�k��,7.9,�k��,5.4,71.9,0,0,0,1
2022-02-14T04:26:00+09:00,5.3,�k�k��,7.9,�k��,5.5,72,0,0,0,1
2022-02-14T04:27:00+09:00,5.4,�k�k��,7.9,�k��,5.5,71.9,0,0,0,1
2022-02-14T04:28:00+09:00,5.3,�k�k��,7.9,�k��,5.4,72,0,0,0,1
2022-02-14T04:29:00+09:00,5.2,�k�k��,7.9,�k��,5.4,72.2,0,0,0,1
2022-02-14T04:30:00+09:00,5.1,�k�k��,7.7,�k�k��,5.4,72.5,0,0,0,1
2022-02-14T04:31:00+09:00,5,�k�k��,7.7,�k�k��,5.4,72.8,0,0,0,1
2022-02-14T04:32:00+09:00,5,�k�k��,7.7,�k�k��,5.4,72.9,0,0,0,1
2022-02-14T04:33:00+09:00,4.9,�k�k��,7.7,�k�k��,5.4,73.1,0,0,0,1
2022-02-14T04:34:00+09:00,5,�k�k��,8.5,�k,5.3,73.4,0,0,0,1
2022-02-14T04:35:00+09:00,5.1,�k�k��,8.5,�k,5.4,73.4,0,0,0,1
2022-02-14T04:36:00+09:00,5.1,�k�k��,8.5,�k,5.3,73.2,0,0,0,1
2022-02-14T04:37:00+09:00,5,�k�k��,8.5,�k,5.4,73,0,0,0,1
2022-02-14T04:38:00+09:00,5,�k�k��,8.5,�k,5.3,73.1,0,0,0,1
2022-02-14T04:39:00+09:00,5,�k,8.5,�k,5.3,73.3,0,0,0,1
2022-02-14T04:40:00+09:00,5.1,�k,8.5,�k,5.3,73.2,0,0,0,1
2022-02-14T04:41:00+09:00,5,�k,8.5,�k,5.3,73.1,0,0,0,1
2022-02-14T04:42:00+09:00,5.2,�k,8.8,�k�k��,5.4,73,0,0,0,1
2022-02-14T04:43:00+09:00,5.4,�k�k��,8.8,�k�k��,5.4,72.7,0,0,0,1
2022-02-14T04:44:00+09:00,5.6,�k�k��,9.5,�k�k��,5.4,72.5,0,0,0,1
2022-02-14T04:45:00+09:00,5.7,�k�k��,9.5,�k�k��,5.4,72.2,0,0,0,1
2022-02-14T04:46:00+09:00,5.6,�k�k��,9.5,�k�k��,5.4,72.2,0,0,0,1
2022-02-14T04:47:00+09:00,5.7,�k�k��,9.5,�k�k��,5.4,72.2,0,0,0,1
2022-02-14T04:48:00+09:00,5.8,�k�k��,9.5,�k�k��,5.4,72.1,0,0,0,1
2022-02-14T04:49:00+09:00,5.9,�k�k��,9.5,�k�k��,5.4,72,0,0,0,1
2022-02-14T04:50:00+09:00,5.9,�k�k��,9.5,�k�k��,5.4,72.1,0,0,0,1
2022-02-14T04:51:00+09:00,5.9,�k�k��,9.5,�k�k��,5.4,72.3,0,0,0,1
2022-02-14T04:52:00+09:00,5.9,�k�k��,9.5,�k�k��,5.4,72.5,0,0,0,1
2022-02-14T04:53:00+09:00,5.9,�k�k��,9.5,�k�k��,5.4,72.2,0,0,0,1
2022-02-14T04:54:00+09:00,5.8,�k�k��,9.5,�k�k��,5.5,71.8,0,0,0,1
2022-02-14T04:55:00+09:00,5.8,�k�k��,9.5,�k�k��,5.5,71.5,0,0,0,1
2022-02-14T04:56:00+09:00,5.8,�k�k��,9.5,�k�k��,5.4,71.5,0,0,0,1
2022-02-14T04:57:00+09:00,5.9,�k�k��,9.5,�k�k��,5.4,71.5,0,0,0,1
2022-02-14T04:58:00+09:00,6,�k�k��,9.5,�k�k��,5.5,71.3,0,0,0,1
2022-02-14T04:59:00+09:00,6,�k�k��,9.5,�k�k��,5.5,71.2,0,0,0,1
2022-02-14T05:00:00+09:00,6.1,�k�k��,9.5,�k�k��,5.5,71.1,0,0,0,1
2022-02-14T05:01:00+09:00,6.3,�k�k��,9.5,�k�k��,5.5,71.2,0,0,0,1
2022-02-14T05:02:00+09:00,6.4,�k�k��,9.5,�k�k��,5.5,71,0,0,0,1
2022-02-14T05:03:00+09:00,6.4,�k�k��,9.5,�k��,5.5,70.8,0,0,0,1
2022-02-14T05:04:00+09:00,6.5,�k�k��,9.5,�k��,5.5,70.4,0,0,0,1
2022-02-14T05:05:00+09:00,6.6,�k�k��,9.6,�k,5.5,70,0,0,0,1
2022-02-14T05:06:00+09:00,6.7,�k�k��,9.6,�k,5.5,70,0,0,0,1
2022-02-14T05:07:00+09:00,6.7,�k�k��,9.6,�k,5.5,70,0,0,0,1
2022-02-14T05:08:00+09:00,6.5,�k�k��,9.6,�k,5.5,70.1,0,0,0,1
2022-02-14T05:09:00+09:00,6.4,�k�k��,9.6,�k,5.5,70.4,0,0,0,1
2022-02-14T05:10:00+09:00,6.2,�k�k��,9.6,�k,5.5,70.4,0,0,0,1
2022-02-14T05:11:00+09:00,6.2,�k�k��,9.6,�k,5.5,70.3,0,0,0,1
2022-02-14T05:12:00+09:00,6.2,�k�k��,9.6,�k,5.5,70.2,0,0,0,1
2022-02-14T05:13:00+09:00,6.1,�k�k��,9.6,�k,5.5,70.2,0,0,0,1
2022-02-14T05:14:00+09:00,6,�k�k��,9.6,�k,5.4,70.3,0,0,0,1
2022-02-14T05:15:00+09:00,6.1,�k�k��,9.5,�k�k��,5.5,70.3,0,0,0,1
2022-02-14T05:16:00+09:00,6.2,�k�k��,10.4,�k�k��,5.5,70,0,0,0,1
2022-02-14T05:17:00+09:00,6.3,�k,10.4,�k�k��,5.5,69.3,0,0,0,1
2022-02-14T05:18:00+09:00,6.6,�k,10.4,�k�k��,5.5,68.9,0,0,0,1
2022-02-14T05:19:00+09:00,6.9,�k,10.5,�k,5.5,68.8,0,0,0,1
2022-02-14T05:20:00+09:00,7.3,�k,12,�k,5.6,68.3,0,0,0,1
2022-02-14T05:21:00+09:00,7.5,�k,12,�k,5.6,67.8,0,0,0,1
2022-02-14T05:22:00+09:00,7.6,�k,12,�k,5.6,67.6,0,0,0,1
2022-02-14T05:23:00+09:00,7.7,�k,12,�k,5.5,67.8,0,0,0,1
2022-02-14T05:24:00+09:00,7.9,�k,12,�k,5.6,67.5,0,0,0,1
2022-02-14T05:25:00+09:00,7.8,�k,12,�k,5.6,67.1,0,0,0,1
2022-02-14T05:26:00+09:00,7.9,�k,12,�k,5.6,67.1,0,0,0,1
2022-02-14T05:27:00+09:00,7.9,�k,12,�k,5.6,67,0,0,0,1
2022-02-14T05:28:00+09:00,8,�k,12,�k,5.6,66.6,0,0,0,1
2022-02-14T05:29:00+09:00,8.1,�k,13.5,�k�k��,5.6,66.5,0,0,0,1
2022-02-14T05:30:00+09:00,8.2,�k�k��,13.5,�k�k��,5.6,65.6,0,0,0,1
2022-02-14T05:31:00+09:00,8.3,�k�k��,13.5,�k�k��,5.6,64.6,0,0,0,1
2022-02-14T05:32:00+09:00,8.6,�k,13.5,�k�k��,5.7,64.2,0,0,0,1
2022-02-14T05:33:00+09:00,8.7,�k,13.5,�k�k��,5.7,64.4,0,0,0,1
2022-02-14T05:34:00+09:00,8.9,�k�k��,13.6,�k�k��,5.6,64.3,0,0,0,1
2022-02-14T05:35:00+09:00,9.2,�k�k��,13.6,�k�k��,5.7,63.1,0,0,0,1
2022-02-14T05:36:00+09:00,9.4,�k�k��,13.6,�k�k��,5.7,62.4,0,0,0,1
2022-02-14T05:37:00+09:00,9.5,�k,13.6,�k�k��,5.7,62.3,0,0,0,1
2022-02-14T05:38:00+09:00,9.6,�k,13.6,�k�k��,5.7,62.3,0,0,0,1
2022-02-14T05:39:00+09:00,9.5,�k,13.6,�k�k��,5.7,62.2,0,0,0,1
2022-02-14T05:40:00+09:00,9.2,�k,13.6,�k�k��,5.7,61.4,0,0,0,1
2022-02-14T05:41:00+09:00,9,�k,13.6,�k�k��,5.7,61.8,0,0,0,1
2022-02-14T05:42:00+09:00,8.8,�k,13.6,�k�k��,5.7,62.1,0,0,0,1
2022-02-14T05:43:00+09:00,8.7,�k,13.6,�k�k��,5.6,62.5,0,0,0,1
2022-02-14T05:44:00+09:00,8.5,�k,12.7,�k,5.6,62.3,0,0,0,1
2022-02-14T05:45:00+09:00,8.1,�k,12.6,�k,5.6,62.1,0,0,0,1
2022-02-14T05:46:00+09:00,7.9,�k,12.6,�k,5.6,62.3,0,0,0,1
2022-02-14T05:47:00+09:00,7.7,�k,11.1,�k�k��,5.6,62.1,0,0,0,1
2022-02-14T05:48:00+09:00,7.7,�k,11.1,�k�k��,5.7,61.6,0,0,0,1
2022-02-14T05:49:00+09:00,7.7,�k,12.8,�k�k��,5.7,61.5,0,0,0,1
2022-02-14T05:50:00+09:00,7.9,�k,13.8,�k�k��,5.7,61.2,0,0,0,1
2022-02-14T05:51:00+09:00,8,�k,13.8,�k�k��,5.7,60.7,0,0,0,1
2022-02-14T05:52:00+09:00,8,�k,13.8,�k�k��,5.7,60.6,0,0,0,1
2022-02-14T05:53:00+09:00,8.1,�k,13.8,�k�k��,5.8,60.8,0,0,0,1
2022-02-14T05:54:00+09:00,8.3,�k,13.8,�k�k��,5.7,60.8,0,0,0,1
2022-02-14T05:55:00+09:00,8.5,�k,13.8,�k�k��,5.7,60.8,0,0,0,1
2022-02-14T05:56:00+09:00,8.5,�k,13.8,�k�k��,5.7,61.3,0,0,0,1
2022-02-14T05:57:00+09:00,8.5,�k,13.8,�k�k��,5.7,61.5,0,0,0,1
2022-02-14T05:58:00+09:00,8.5,�k,13.8,�k�k��,5.7,61.3,0,0,0,1
2022-02-14T05:59:00+09:00,8.4,�k,13.8,�k�k��,5.7,61.6,0,0,0,1
2022-02-14T06:00:00+09:00,8.1,�k,12.2,�k�k��,5.7,61.9,0,0,0,1
2022-02-14T06:01:00+09:00,8.2,�k,12.2,�k�k��,5.7,61.8,0,0,0,1
2022-02-14T06:02:00+09:00,8.4,�k,12.2,�k�k��,5.7,61.3,0,0,0,1
2022-02-14T06:03:00+09:00,8.3,�k,12.2,�k�k��,5.7,61.3,0,0,0,1
2022-02-14T06:04:00+09:00,8.2,�k,11.6,�k�k��,5.7,61.3,0,0,0,1
2022-02-14T06:05:00+09:00,8.2,�k,11.6,�k�k��,5.7,61.3,0,0,0,1
2022-02-14T06:06:00+09:00,8.4,�k,12.4,�k,5.7,61.2,0,0,0,1
2022-02-14T06:07:00+09:00,8.5,�k,12.4,�k,5.7,61.2,0,0,0,1
2022-02-14T06:08:00+09:00,8.3,�k,12.4,�k,5.7,61.2,0,0,0,1
2022-02-14T06:09:00+09:00,8.5,�k,12.4,�k,5.7,61.4,0,0,0,1
2022-02-14T06:10:00+09:00,8.6,�k,12.4,�k,5.7,61.1,0,0,0,1
2022-02-14T06:11:00+09:00,8.4,�k,12.4,�k,5.7,61.3,0,0,0,1
2022-02-14T06:12:00+09:00,8.4,�k,12.4,�k,5.7,61,0,0,0,1
2022-02-14T06:13:00+09:00,8.4,�k,12.4,�k,5.7,60.6,0,0,0,1
2022-02-14T06:14:00+09:00,8.6,�k,12.9,�k�k��,5.8,60.4,0,0,0,1
2022-02-14T06:15:00+09:00,8.6,�k,12.9,�k�k��,5.8,59.9,0,0,0,1
2022-02-14T06:16:00+09:00,8.5,�k,12.9,�k�k��,5.8,60.1,0,0,0,1
2022-02-14T06:17:00+09:00,8.5,�k,12.9,�k�k��,5.8,60.6,0,0,0,1
2022-02-14T06:18:00+09:00,8.6,�k,12.9,�k�k��,5.8,60.6,0,0,0,1
2022-02-14T06:19:00+09:00,8.5,�k,12.9,�k�k��,5.7,60.7,0,0,0,1
2022-02-14T06:20:00+09:00,8.6,�k,12.9,�k�k��,5.8,60.3,0,0,0,1
2022-02-14T06:21:00+09:00,8.7,�k,12.9,�k�k��,5.8,60.3,0,0,0,1
2022-02-14T06:22:00+09:00,8.6,�k,12.9,�k�k��,5.8,60.3,0,0,0,1
2022-02-14T06:23:00+09:00,8.6,�k,12.9,�k�k��,5.8,60.5,0,0,0,1
2022-02-14T06:24:00+09:00,8.4,�k,12,�k�k��,5.8,60.5,0,0,0,1
2022-02-14T06:25:00+09:00,8.2,�k,12,�k�k��,5.7,60.7,0,0,0,1
2022-02-14T06:26:00+09:00,8,�k,12,�k�k��,5.7,61.1,0,0,0,1
2022-02-14T06:27:00+09:00,7.9,�k,11.9,�k,5.6,61.5,0,0,0,1
2022-02-14T06:28:00+09:00,7.7,�k,11.9,�k,5.6,61.3,0,0,0,1
2022-02-14T06:29:00+09:00,7.7,�k,11.2,�k�k��,5.7,61,0,0,0,1